Location: Étang Rond
(42.7927°N, 1.0661°E)
Time: 03:19:46
(UTC+00:00)

BlueWalker 3 - Visible Passes

Search period start: 19 January 2026 00:00
Search period end: 29 January 2026 00:00
Orbit: 451 x 463 km, 53.2° (Epoch: 18 January)

Date Brightness Start Highest point End Pass type
(mag) Time Alt. Az. Time Alt. Az. Time Alt. Az.
19 Jan 3.1 18:30:35 10° S 18:33:08 25° SSE 18:33:08 25° SSE visible
20 Jan 3.4 17:55:38 10° S 17:58:18 20° SE 17:59:37 17° ESE visible
20 Jan 4.3 19:32:03 10° WSW 19:33:22 21° WSW 19:33:22 21° WSW visible
21 Jan 2.1 18:56:35 10° WSW 18:59:45 62° W 18:59:45 62° W visible
22 Jan 1.6 18:21:10 10° SW 18:24:44 89° NW 18:26:03 37° NE visible
22 Jan 5.2 19:59:47 10° WNW 19:59:48 10° WNW 19:59:48 10° WNW visible
23 Jan 1.7 17:45:47 10° SW 17:49:20 70° SE 17:52:17 14° ENE visible
23 Jan 4.0 19:24:07 10° WNW 19:26:01 21° NW 19:26:01 21° NW visible
24 Jan 3.2 18:48:28 10° W 18:51:36 28° NNW 18:52:10 27° N visible
25 Jan 3.0 18:12:49 10° W 18:16:05 33° NNW 18:18:15 17° NNE visible
26 Jan 2.7 17:37:12 10° W 17:40:35 39° NNW 17:43:59 10° NE visible
26 Jan 4.2 19:16:27 10° NW 19:18:01 15° NNW 19:18:01 15° NNW visible
27 Jan 3.8 18:40:43 10° NW 18:43:13 17° NNW 18:44:01 16° N visible
28 Jan 3.8 18:04:58 10° WNW 18:07:36 19° NNW 18:09:59 11° NNE visible
